Location: Bucquoy
(50.1391°N, 2.7097°E)
Time: 03:55:52
(UTC+00:00)

SL-24 R/B - Pass Details

Date: 06 May 2021
Orbit: 617 x 1346 km, 98.0° (Epoch: 22 June)

Event Time Altitude Azimuth Distance (km) Brightness Sun altitude
Exits shadow 00:54:10 53° 203° (SSW) 896 4.4 -21.6°
Maximum altitude 00:55:07 67° 257° (WSW) 778 4.3 -21.6°
Drops below altitude 10° 00:59:35 10° 341° (NNW) 2,081 7.5 -21.4°
Sets 01:01:42 0° 344° (NNW) 2,953 8.4 -21.2°
